sat.trackr.live / text

‹ back to catalog

STARLINK-4506

NORAD 53554 · 2022-101AD

PAYLOAD ACTIVE UNKNOWN

§ Identity

Operator
Country
US
Launch date
2022-08-19
Launch site
AFETR
Launch vehicle
Mass (kg)
RCS (m²)

Purposes: comms

External: N2YO · Heavens-Above · Gunter

§ Orbital elements

Epoch: 2026-09-19T13:04:21.603936Z

Period
95.44 min
Inclination
53.1610°
Eccentricity
0.0001152
Mean motion
15.08814078 rev/d
Perigee alt
539.0 km
Apogee alt
540.6 km
Semi-major
6,918.0 km
B*
3.0273e-6
RAAN
273.2291°
Arg perigee
95.6975°
Mean anomaly
264.4148°
Rev number
22,557

§ Raw data

STARLINK-45061 53554U 22101AD  26262.54469449 -.00000240  00000+0  30273-5 0  99972 53554  53.1610 273.2291 0001152  95.6975 264.4148 15.08814078225578

JSON: /api/v1/satellites/53554 · /tle

For live sub-satellite position, see the globe view (requires WebGL).

§ Visibility from observer

Set your observer location to see the next 7 days of passes ≥ 10°. The values pass through the URL so the page stays shareable.

No JS? Fill the form by hand. The geolocation button needs JavaScript.